Вернуться в каталог

STARLINK-32463

АктивенСвязьVLEO
NORAD 62130·PAYLOAD·🇺🇸 United States

Запущен Nov 27, 2024 с Cape Canaveral Space Force Station

Loading…

Ближайшие Пролёты (ближайшие 24 часа)

TLE

СвежийSource: CelesTrak SupGP

Эпоха: Sep 14, 2026, 21:22 UTC

1 62130C 24222S   26257.89076389 -.00038634  00000+0 -13994-2 0  2576
2 62130  43.0003 147.4513 0001162 266.2854 231.1233 15.27596740    14

Отслеживайте STARLINK-32463 в реальном времени с AllMySat

Download on the App Store